DEPIC EDBM-EDDE

Flight info

Callsign DEPIC
Flight time 0h 35m
Altitude 4000
Route 520427N0113926E DCT 514734N0114923E 513630N0112825E 512756N0110724E 511427N0105437E 510454N0105512E DCT 510136N0105836E
Aircraft BE36/L-BDFGLORY/S

Departure

Time 2026-05-08 12:53
Airport Magdeburg City Airfield (EDBM)

Arrival

Time 2026-05-08 13:29
Airport Erfurt-Weimar Airport (EDDE)
Time Latitude Longitude Altitude Speed Heading
2026-05-08 12:44 52.07673 11.62637 264 ft 0 kts
2026-05-08 12:48 52.07679 11.62637 264 ft 3 kts
2026-05-08 12:48 52.07704 11.62598 261 ft 9 kts 270°
2026-05-08 12:48 52.07695 11.62521 261 ft 5 kts 187°
2026-05-08 12:48 52.07649 11.62515 261 ft 8 kts 198°
2026-05-08 12:49 52.07643 11.62454 261 ft 7 kts 276°
2026-05-08 12:49 52.07648 11.62364 261 ft 9 kts 275°
2026-05-08 12:49 52.07654 11.62251 261 ft 11 kts 276°
2026-05-08 12:49 52.07662 11.62118 261 ft 12 kts 275°
2026-05-08 12:50 52.07657 11.61996 261 ft 9 kts 228°
2026-05-08 12:50 52.07597 11.61962 261 ft 10 kts 196°
2026-05-08 12:50 52.07524 11.61929 261 ft 12 kts 195°
2026-05-08 12:50 52.07441 11.61893 261 ft 13 kts 194°
2026-05-08 12:51 52.07362 11.61871 266 ft 7 kts 151°
2026-05-08 12:51 52.07363 11.62510 262 ft 72 kts 89°
2026-05-08 12:51 52.07371 11.63458 315 ft 92 kts 90°
2026-05-08 12:52 52.07389 11.64551 403 ft 97 kts 88°
2026-05-08 12:52 52.07427 11.66715 587 ft 98 kts 88°
2026-05-08 12:52 52.07596 11.67788 685 ft 103 kts 52°
2026-05-08 12:53 52.07912 11.68768 795 ft 102 kts 98°
2026-05-08 12:53 52.07630 11.69825 908 ft 103 kts 126°
2026-05-08 12:53 52.07026 11.70468 1002 ft 110 kts 160°
2026-05-08 12:53 52.06237 11.70748 1003 ft 122 kts 165°
2026-05-08 12:54 52.05389 11.71090 1009 ft 129 kts 164°
2026-05-08 12:54 52.04507 11.71455 1007 ft 133 kts 163°
2026-05-08 12:54 52.03602 11.71841 1008 ft 136 kts 162°
2026-05-08 12:54 52.02685 11.72233 1007 ft 137 kts 162°
2026-05-08 12:55 52.01753 11.72635 1005 ft 140 kts 163°
2026-05-08 12:55 52.00816 11.73039 1007 ft 139 kts 162°
2026-05-08 12:55 51.99882 11.73443 1009 ft 139 kts 163°
2026-05-08 12:55 51.98945 11.73848 1011 ft 139 kts 163°
2026-05-08 12:56 51.98004 11.74251 1005 ft 140 kts 164°
2026-05-08 12:56 51.97072 11.74656 1007 ft 138 kts 163°
2026-05-08 12:56 51.96141 11.75058 1007 ft 140 kts 163°
2026-05-08 12:56 51.95197 11.75467 1010 ft 141 kts 163°
2026-05-08 12:57 51.94238 11.75878 1008 ft 143 kts 163°
2026-05-08 12:57 51.93277 11.76292 1007 ft 143 kts 164°
2026-05-08 12:57 51.92306 11.76709 1006 ft 145 kts 164°
2026-05-08 12:57 51.91337 11.77128 1012 ft 144 kts 163°
2026-05-08 12:58 51.90363 11.77545 1004 ft 145 kts 163°
2026-05-08 12:58 51.89402 11.77959 1011 ft 144 kts 163°
2026-05-08 12:58 51.88434 11.78375 1003 ft 144 kts 162°
2026-05-08 12:58 51.87466 11.78792 1005 ft 145 kts 164°
2026-05-08 12:59 51.86497 11.79207 1007 ft 144 kts 162°
2026-05-08 12:59 51.85544 11.79615 1065 ft 138 kts 164°
2026-05-08 12:59 51.84636 11.80005 1165 ft 132 kts 162°
2026-05-08 12:59 51.83762 11.80382 1260 ft 128 kts 163°
2026-05-08 13:00 51.82912 11.80745 1363 ft 125 kts 162°
2026-05-08 13:00 51.82065 11.81108 1459 ft 126 kts 162°
2026-05-08 13:00 51.81236 11.81463 1562 ft 122 kts 161°
2026-05-08 13:00 51.80411 11.81816 1662 ft 123 kts 161°
2026-05-08 13:01 51.79565 11.81968 1768 ft 126 kts 188°
2026-05-08 13:01 51.78783 11.81332 1877 ft 129 kts 221°
2026-05-08 13:01 51.78199 11.80229 1987 ft 129 kts 228°
2026-05-08 13:01 51.77592 11.79093 2002 ft 137 kts 229°
2026-05-08 13:02 51.76964 11.77899 2009 ft 142 kts 229°
2026-05-08 13:02 51.76319 11.76669 2010 ft 146 kts 228°
2026-05-08 13:02 51.75661 11.75412 2012 ft 147 kts 229°
2026-05-08 13:02 51.74994 11.74144 2007 ft 149 kts 228°
2026-05-08 13:03 51.74323 11.72870 2010 ft 149 kts 229°
2026-05-08 13:03 51.73649 11.71588 2009 ft 150 kts 229°
2026-05-08 13:03 51.72973 11.70305 2010 ft 150 kts 229°
2026-05-08 13:03 51.72303 11.69034 2011 ft 148 kts 228°
2026-05-08 13:04 51.71633 11.67758 2006 ft 150 kts 229°
2026-05-08 13:04 51.70966 11.66496 2006 ft 149 kts 228°
2026-05-08 13:04 51.70293 11.65219 2007 ft 149 kts 229°
2026-05-08 13:04 51.69615 11.63936 2004 ft 151 kts 228°
2026-05-08 13:05 51.68934 11.62651 2002 ft 151 kts 229°
2026-05-08 13:05 51.68249 11.61354 2006 ft 153 kts 230°
2026-05-08 13:05 51.67560 11.60043 2002 ft 154 kts 228°
2026-05-08 13:05 51.66862 11.58726 2004 ft 154 kts 228°
2026-05-08 13:06 51.66169 11.57418 2006 ft 154 kts 228°
2026-05-08 13:06 51.65477 11.56110 2002 ft 152 kts 228°
2026-05-08 13:06 51.64788 11.54812 2002 ft 152 kts 227°
2026-05-08 13:06 51.64101 11.53517 1999 ft 151 kts 228°
2026-05-08 13:07 51.63419 11.52227 1998 ft 151 kts 228°
2026-05-08 13:07 51.62734 11.50940 2005 ft 152 kts 229°
2026-05-08 13:07 51.62041 11.49631 2001 ft 154 kts 229°
2026-05-08 13:07 51.61343 11.48318 2004 ft 154 kts 228°
2026-05-08 13:08 51.60671 11.46980 2004 ft 153 kts 237°
2026-05-08 13:08 51.60104 11.45548 2003 ft 151 kts 236°
2026-05-08 13:08 51.59531 11.44138 2001 ft 150 kts 236°
2026-05-08 13:08 51.58968 11.42752 2001 ft 151 kts 236°
2026-05-08 13:09 51.58390 11.41335 1999 ft 152 kts 236°
2026-05-08 13:09 51.57814 11.39903 1999 ft 153 kts 236°
2026-05-08 13:09 51.57232 11.38476 1998 ft 152 kts 236°
2026-05-08 13:09 51.56653 11.37054 2000 ft 151 kts 236°
2026-05-08 13:10 51.56073 11.35645 1995 ft 151 kts 234°
2026-05-08 13:10 51.55507 11.34222 1996 ft 152 kts 236°
2026-05-08 13:10 51.54924 11.32798 1991 ft 152 kts 236°
2026-05-08 13:10 51.54345 11.31376 1995 ft 153 kts 235°
2026-05-08 13:11 51.53762 11.29949 2001 ft 153 kts 236°
2026-05-08 13:11 51.53172 11.28511 2001 ft 154 kts 236°
2026-05-08 13:11 51.52588 11.27073 2006 ft 153 kts 236°
2026-05-08 13:11 51.52011 11.25639 1998 ft 152 kts 236°
2026-05-08 13:12 51.51427 11.24233 1999 ft 152 kts 233°
2026-05-08 13:12 51.50845 11.22817 1995 ft 152 kts 236°
2026-05-08 13:12 51.50276 11.21406 1998 ft 150 kts 236°
2026-05-08 13:12 51.49704 11.20015 2002 ft 150 kts 236°
2026-05-08 13:13 51.49126 11.18604 2004 ft 152 kts 236°
2026-05-08 13:13 51.48549 11.17189 2003 ft 152 kts 236°
2026-05-08 13:13 51.48165 11.16253 2007 ft 152 kts 235°
2026-05-08 13:13 51.47578 11.14826 2004 ft 153 kts 236°
2026-05-08 13:14 51.46807 11.12946 1992 ft 150 kts 234°
2026-05-08 13:14 51.46053 11.11840 1988 ft 147 kts 207°
2026-05-08 13:14 51.45449 11.11292 1990 ft 149 kts 209°
2026-05-08 13:14 51.44565 11.10436 1989 ft 149 kts 208°
2026-05-08 13:15 51.43674 11.09584 1995 ft 150 kts 208°
2026-05-08 13:15 51.42773 11.08726 1998 ft 151 kts 208°
2026-05-08 13:15 51.41868 11.07864 1994 ft 151 kts 208°
2026-05-08 13:15 51.40964 11.07019 1995 ft 148 kts 205°
2026-05-08 13:16 51.40081 11.06186 1994 ft 146 kts 208°
2026-05-08 13:16 51.39225 11.05341 1985 ft 144 kts 209°
2026-05-08 13:16 51.38363 11.04535 1995 ft 144 kts 207°
2026-05-08 13:16 51.37496 11.03707 1990 ft 146 kts 207°
2026-05-08 13:17 51.36614 11.02874 1998 ft 149 kts 209°
2026-05-08 13:17 51.35720 11.02030 1997 ft 150 kts 208°
2026-05-08 13:17 51.34825 11.01179 2002 ft 149 kts 209°
2026-05-08 13:17 51.33939 11.00336 2004 ft 146 kts 208°
2026-05-08 13:18 51.33075 10.99521 1997 ft 146 kts 209°
2026-05-08 13:18 51.32200 10.98696 1992 ft 147 kts 207°
2026-05-08 13:18 51.31326 10.97865 1992 ft 145 kts 208°
2026-05-08 13:18 51.30458 10.97045 1994 ft 144 kts 208°
2026-05-08 13:19 51.29582 10.96220 1996 ft 148 kts 206°
2026-05-08 13:19 51.28682 10.95368 2004 ft 151 kts 208°
2026-05-08 13:19 51.27774 10.94510 2003 ft 151 kts 208°
2026-05-08 13:19 51.26873 10.93659 2002 ft 149 kts 208°
2026-05-08 13:20 51.25979 10.92816 2005 ft 150 kts 208°
2026-05-08 13:20 51.25081 10.91968 2002 ft 150 kts 207°
2026-05-08 13:20 51.24163 10.91196 2004 ft 148 kts 194°
2026-05-08 13:20 51.23155 10.91085 2002 ft 146 kts 172°
2026-05-08 13:21 51.22138 10.91150 2002 ft 147 kts 174°
2026-05-08 13:21 51.21120 10.91206 2004 ft 146 kts 173°
2026-05-08 13:21 51.20101 10.91269 2004 ft 146 kts 174°
2026-05-08 13:21 51.19086 10.91326 2002 ft 145 kts 172°
2026-05-08 13:22 51.18082 10.91390 2002 ft 143 kts 173°
2026-05-08 13:22 51.17081 10.91455 2003 ft 144 kts 173°
2026-05-08 13:22 51.16072 10.91515 2000 ft 145 kts 173°
2026-05-08 13:22 51.15064 10.91576 2003 ft 145 kts 173°
2026-05-08 13:23 51.14054 10.91638 2001 ft 146 kts 174°
2026-05-08 13:23 51.13042 10.91701 2003 ft 146 kts 173°
2026-05-08 13:23 51.12033 10.91762 2000 ft 145 kts 174°
2026-05-08 13:23 51.11027 10.91822 2000 ft 145 kts 173°
2026-05-08 13:24 51.10013 10.91884 2003 ft 146 kts 173°
2026-05-08 13:24 51.09008 10.91947 2003 ft 147 kts 173°
2026-05-08 13:24 51.08020 10.92207 2000 ft 142 kts 154°
2026-05-08 13:24 51.07188 10.93016 2000 ft 142 kts 143°
2026-05-08 13:25 51.06365 10.93854 2000 ft 138 kts 145°
2026-05-08 13:25 51.05564 10.94677 1991 ft 137 kts 145°
2026-05-08 13:25 51.04772 10.95492 1996 ft 133 kts 144°
2026-05-08 13:25 51.04022 10.96265 1997 ft 125 kts 145°
2026-05-08 13:26 51.03300 10.97009 1997 ft 123 kts 147°
2026-05-08 13:26 51.02460 10.97292 1993 ft 127 kts 182°
2026-05-08 13:26 51.01637 10.96822 1995 ft 127 kts 207°
2026-05-08 13:26 51.00868 10.96169 1904 ft 125 kts 213°
2026-05-08 13:27 51.00300 10.95267 1790 ft 100 kts 231°
2026-05-08 13:27 50.99919 10.94410 1619 ft 94 kts 237°
2026-05-08 13:27 50.99535 10.93601 1519 ft 90 kts 222°
2026-05-08 13:27 50.98987 10.93189 1455 ft 90 kts 184°
2026-05-08 13:28 50.98357 10.93364 1321 ft 94 kts 141°
2026-05-08 13:28 50.98107 10.94260 1122 ft 94 kts 92°
2026-05-08 13:28 50.98024 10.95233 1026 ft 82 kts 94°
2026-05-08 13:28 50.97971 10.95980 1021 ft 51 kts 97°
2026-05-08 13:29 50.97912 10.96297 1022 ft 17 kts 167°
2026-05-08 13:29 50.97806 10.96281 1022 ft 14 kts 188°
2026-05-08 13:29 50.97733 10.96244 1022 ft 8 kts 251°
2026-05-08 13:29 50.97738 10.96165 1022 ft 7 kts 276°
2026-05-08 13:30 50.97743 10.96099 1022 ft 5 kts 276°
2026-05-08 13:30 50.97731 10.96071 1022 ft 2 kts 183°
2026-05-08 13:30 50.97717 10.96070 1022 ft 2 kts 175°
2026-05-08 13:30 50.97701 10.96065 1022 ft 2 kts 233°
2026-05-08 13:31 50.97701 10.96049 1022 ft 4 kts 298°
2026-05-08 13:31 50.97711 10.96040 1022 ft 0 kts 341°